Weather History for Windsor Locks, CT

Change the Weather History Date:

Thursday, January 16, 2014

  Actual Average Record
Temperature  
Mean Temperature 37 °F 26 °F  
Max Temperature 40 °F 34 °F 62 °F (1995)
Min Temperature 34 °F 17 °F -8 °F (1984)
Degree Days  
Heating Degree Days 28 39  
Month to date heating degree days 612 621  
Since 1 July heating degree days 2908 2865  
Cooling Degree Days 0 0  
Month to date cooling degree days 0 0  
Year to date cooling degree days 0 0  
Moisture  
Dew Point 32 °F    
Average Humidity 83    
Maximum Humidity 96    
Minimum Humidity 70    
Precipitation  
Precipitation T in 0.11 in 1.00 in (1924)
Month to date precipitation 3.21 1.65  
Year to date precipitation 3.21 1.65  
Snow  
Snow 0.00 in 0.40 in 5.50 in (1961)
Month to date snowfall 8.6 6.3  
Since 1 July snowfall 21.3 15.7  
Snow Depth 0.00 in    
Sea Level Pressure  
Sea Level Pressure 29.88 in    
Wind  
Wind Speed 2 mph (NNW)    
Max Wind Speed 7 mph    
Max Gust Speed 8 mph    
Visibility 8 miles    
Events Rain    
T = Trace of Precipitation, MM = Missing Value Source: NWS Daily Summary

Daily Weather History Graph

Daily Weather History Graph

Search for Another Location

Airport:

Trip Planner

Search our weather history database for the weather conditions in past years. The results will help you decide how hot, cold, wet, or windy it might be!

Date:

Astronomy

Jan. 16, 2014 Rise Set
Actual Time 7:15 AM EST 4:45 PM EST
Civil Twilight 6:44 AM EST 5:16 PM EST
Nautical Twilight 6:10 AM EST 5:50 PM EST
Astronomical Twilight 5:37 AM EST 6:24 PM EST
Moon 5:36 PM EST (1/16) 7:06 AM EST (1/16)
Length of Visible Light 10h 31m
Length of Day
9h 30m
Full, 100% of the Moon is Illuminated
Jan 16
Full
Jan 24
Last Quarter
Jan 30
New
Feb 6
First Quarter
Feb 14
Full

Hourly Weather History & Observations

Time (EST) Temp. Windchill Dew Point Humidity Pressure Visibility Wind Dir Wind Speed Gust Speed Precip Events Conditions
12:07 AM 35.6 °F - 32.0 °F 87% 29.87 in 8.0 mi Calm Calm - N/A   Mostly Cloudy
12:43 AM 33.8 °F - 32.0 °F 93% 29.88 in 10.0 mi Calm Calm - N/A   Mostly Cloudy
12:51 AM 34.0 °F - 32.0 °F 92% 29.89 in 10.0 mi Calm Calm - N/A   Mostly Cloudy
1:51 AM 35.1 °F - 32.0 °F 89% 29.88 in 9.0 mi Calm Calm - N/A   Overcast
2:01 AM 33.8 °F 30.8 °F 30.2 °F 87% 29.88 in 8.0 mi WNW 3.5 mph - N/A   Overcast
2:51 AM 35.1 °F - 33.1 °F 92% 29.88 in 7.0 mi Calm Calm - N/A   Overcast
3:08 AM 33.8 °F - 32.0 °F 93% 29.87 in 1.5 mi Calm Calm - N/A   Overcast
3:51 AM 35.1 °F - 33.1 °F 92% 29.87 in 1.5 mi Calm Calm - N/A   Overcast
4:51 AM 34.0 °F - 32.0 °F 92% 29.86 in 2.5 mi Calm Calm - N/A   Overcast
5:43 AM 33.8 °F - 32.0 °F 93% 29.86 in 2.5 mi Calm Calm - N/A   Mostly Cloudy
5:51 AM 34.0 °F - 32.0 °F 92% 29.87 in 2.5 mi Calm Calm - N/A   Mostly Cloudy
6:20 AM 33.8 °F - 32.0 °F 93% 29.87 in 6.0 mi Calm Calm - N/A   Overcast
6:51 AM 34.0 °F - 32.0 °F 92% 29.87 in 9.0 mi Calm Calm - N/A   Mostly Cloudy
7:51 AM 35.1 °F - 32.0 °F 89% 29.88 in 4.0 mi Calm Calm - N/A   Overcast
8:51 AM 35.1 °F - 33.1 °F 92% 29.90 in 4.0 mi Calm Calm - N/A   Overcast
9:41 AM 37.4 °F 34.9 °F 33.8 °F 87% 29.90 in 6.0 mi NNW 3.5 mph - N/A   Overcast
9:51 AM 37.0 °F - 33.1 °F 86% 29.93 in 7.0 mi Calm Calm - N/A   Overcast
10:24 AM 37.4 °F 34.9 °F 30.2 °F 75% 29.90 in 10.0 mi NNW 3.5 mph - N/A   Overcast
10:51 AM 37.9 °F 35.5 °F 30.9 °F 76% 29.92 in 10.0 mi NNW 3.5 mph - N/A   Overcast
11:51 AM 39.0 °F 34.8 °F 30.9 °F 73% 29.87 in 10.0 mi NNE 5.8 mph - N/A   Overcast
12:51 PM 39.0 °F 34.8 °F 30.9 °F 73% 29.86 in 10.0 mi NNE 5.8 mph - N/A   Overcast
1:51 PM 39.0 °F 36.8 °F 32.0 °F 76% 29.86 in 10.0 mi NW 3.5 mph - N/A   Overcast
2:46 PM 39.2 °F 37.0 °F 32.0 °F 75% 29.86 in 10.0 mi NNW 3.5 mph - N/A   Overcast
2:51 PM 39.0 °F 36.8 °F 32.0 °F 76% 29.86 in 10.0 mi NNW 3.5 mph - N/A   Overcast
3:51 PM 39.0 °F 34.8 °F 32.0 °F 76% 29.86 in 10.0 mi NNW 5.8 mph - N/A   Overcast
4:51 PM 37.9 °F 35.5 °F 30.9 °F 76% 29.86 in 10.0 mi NNE 3.5 mph - N/A   Overcast
5:51 PM 37.9 °F - 32.0 °F 79% 29.87 in 9.0 mi Calm Calm - 0.00 in Rain Light Rain
6:51 PM 37.0 °F 32.4 °F 33.1 °F 86% 29.89 in 8.0 mi North 5.8 mph - 0.00 in Rain Light Rain
7:51 PM 36.0 °F - 33.1 °F 89% 29.90 in 9.0 mi Calm Calm - 0.00 in   Overcast
8:51 PM 35.1 °F - 33.1 °F 92% 29.92 in 9.0 mi Calm Calm - 0.00 in   Overcast
9:51 PM 35.1 °F 31.0 °F 32.0 °F 89% 29.93 in 7.0 mi WNW 4.6 mph - 0.00 in   Light Drizzle
10:51 PM 35.1 °F - 33.1 °F 92% 29.92 in 6.0 mi Calm Calm - 0.00 in   Light Drizzle
11:37 PM 35.6 °F 32.8 °F 33.8 °F 93% 29.91 in 10.0 mi West 3.5 mph - 0.00 in   Overcast
11:51 PM 35.1 °F - 33.1 °F 92% 29.92 in 10.0 mi Calm Calm - 0.00 in   Overcast